Temperature
13 13 13 13 13 13 13 13 13 12 12 13 12 12 12 12 12 12 12 12 12 12 12 12 11 12 12 12 12 12 12 12 12 12 12 12 11 11 11 11 12 12 13
13 13 13 13 13 12 12 12 12 12 12 12 12 12 12 12 12 12 12 12 12 12 12 11 11 11 12 12 12 12 12 12 11 11 11 11 11 11 11 11 11 11 11
13 13 12 12 12 12 12 12 12 12 12 11 11 11 11 12 12 12 12 12 11 11 11 11 11 11 11 11 11 12 12 12 12 12 11 11 11 11 11 11 11 11 11
12 12 12 12 12 12 12 11 11 11 11 11 11 11 11 11 11 11 11 11 11 11 11 11 11 11 11 11 11 11 11 11 12 12 12 11 11 11 11 11 11 11 11
12 12 12 12 11 11 11 11 11 11 11 11 10 10 11 11 11 11 11 11 11 11 11 11 11 11 11 10 10 10 10 11 11 11 11 11 11 11 11 11 11 11 11
12 12 12 11 11 11 11 11 11 10 10 10 9 10 10 10 10 10 10 11 11 11 11 10 10 10 10 10 10 10 10 10 10 10 10 10 10 11 11 11 11 11 11
12 12 11 11 11 11 10 10 10 9 9 8 8 8 9 9 9 9 10 9 9 9 9 9 9 9 9 9 9 9 9 9 9 9 9 9 9 9 10 10 10 10 10
11 11 11 11 10 10 9 9 8 8 8 7 6 6 6 6 8 7 7 7 7 7 7 7 7 7 7 8 8 8 8 8 8 8 8 8 8 8 8 9 9 9 9
11 11 10 10 10 9 8 8 7 7 6 6 6 5 4 4 4 5 5 5 5 6 5 5 5 5 5 6 6 6 6 6 6 6 7 7 7 7 7 7 7 8 8
10 10 10 9 9 8 7 7 6 6 5 5 5 5 4 3 3 3 3 4 3 3 3 3 4 4 4 4 4 4 5 5 5 5 5 5 5 6 6 6 6 6 6
10 10 9 9 8 7 6 6 6 5 5 4 4 4 4 3 2 2 1 1 1 2 2 2 2 2 2 3 3 3 4 4 4 4 4 4 4 4 4 4 4 4 5
9 9 8 8 7 6 6 5 5 5 4 4 3 3 2 1 1 0 0 0 0 0 0 0 1 1 1 1 2 2 2 2 2 2 3 3 3 3 3 3 3 3 3
8 8 7 6 6 5 5 4 4 4 4 3 2 1 1 0 -0 -0 -1 -1 -1 -1 -1 -1 -1 -0 -0 -0 -0 -0 0 0 0 1 1 2 2 2 1 1 1 1 2
7 7 6 5 5 4 4 4 3 3 2 2 1 0 -0 -0 -1 -1 -1 -1 -2 -2 -2 -2 -2 -2 -2 -2 -2 -2 -2 -1 -1 -1 -1 -0 -0 -0 0 0 0 0 0
6 5 5 4 4 4 3 3 2 2 1 0 -0 -1 -1 -1 -2 -2 -2 -2 -2 -3 -3 -3 -3 -3 -3 -3 -3 -3 -3 -3 -3 -2 -2 -2 -1 -1 -1 -1 -1 -1 -1
5 4 4 4 3 3 3 2 1 1 -0 -1 -1 -2 -2 -2 -2 -2 -3 -3 -3 -3 -4 -4 -4 -4 -4 -4 -4 -4 -4 -4 -4 -3 -3 -3 -3 -2 -2 -2 -2 -2 -1
3 3 3 3 3 2 2 1 0 -1 -2 -2 -2 -3 -3 -3 -3 -3 -3 -4 -4 -4 -4 -4 -5 -5 -5 -5 -5 -5 -5 -5 -5 -4 -4 -4 -3 -3 -3 -3 -2 -2 -2
3 2 2 2 2 1 1 -0 -1 -2 -3 -3 -3 -4 -4 -4 -4 -4 -4 -4 -5 -5 -5 -5 -6 -6 -6 -6 -5 -5 -5 -5 -5 -5 -5 -4 -4 -4 -4 -3 -3 -3 -3
2 2 2 1 1 0 -1 -2 -3 -3 -4 -4 -4 -5 -5 -5 -5 -5 -5 -5 -5 -6 -6 -6 -6 -6 -6 -6 -6 -6 -6 -6 -6 -6 -6 -6 -5 -5 -5 -4 -4 -4 -3
2 1 1 1 -0 -1 -2 -3 -4 -4 -4 -5 -5 -6 -6 -6 -6 -6 -6 -6 -6 -6 -6 -6 -7 -7 -7 -6 -6 -6 -6 -7 -7 -7 -7 -7 -6 -6 -6 -5 -5 -4 -4
1 1 0 -1 -1 -2 -3 -4 -4 -5 -6 -6 -6 -6 -7 -7 -6 -6 -6 -6 -6 -6 -7 -7 -7 -7 -7 -7 -7 -7 -7 -7 -7 -8 -8 -7 -7 -7 -7 -6 -6 -5 -5
0 -0 -1 -2 -2 -3 -4 -5 -5 -6 -6 -6 -7 -7 -7 -7 -7 -7 -7 -7 -7 -7 -7 -7 -7 -8 -8 -8 -8 -8 -8 -8 -8 -8 -8 -8 -8 -8 -7 -7 -6 -5 -5
-1 -1 -2 -2 -3 -4 -5 -5 -6 -6 -6 -7 -7 -8 -8 -8 -7 -7 -7 -7 -7 -7 -7 -8 -8 -8 -8 -8 -9 -8 -8 -8 -8 -8 -9 -8 -8 -8 -7 -7 -6 -6 -5
-1 -2 -2 -3 -4 -5 -5 -6 -6 -6 -7 -7 -8 -8 -8 -8 -8 -8 -8 -7 -8 -8 -8 -8 -9 -9 -9 -9 -9 -9 -9 -9 -9 -9 -9 -9 -8 -8 -8 -8 -7 -7 -6
-2 -2 -3 -4 -5 -5 -6 -6 -6 -7 -7 -8 -8 -8 -8 -8 -8 -8 -8 -8 -8 -8 -9 -9 -9 -9 -9 -9 -9 -9 -9 -9 -9 -9 -9 -9 -9 -9 -9 -8 -8 -7 -7
-3 -3 -4 -5 -6 -6 -6 -7 -7 -7 -8 -8 -8 -8 -8 -8 -8 -8 -8 -8 -9 -9 -9 -9 -10 -10 -10 -10 -10 -10 -10 -10 -10 -10 -9 -10 -10 -9 -9 -8 -8 -7 -7
Wind_Speed
0 1 1 1 2 3 2 3 4 6 6 6 6 6 7 6 8 10 11 16 17 19 23 24 25 25 26 28 28 29 30 30 31 31 32 32 32 33 33 33 33 33 32
3 3 4 3 3 3 4 3 5 5 5 5 6 8 8 7 7 8 10 13 16 18 21 23 24 25 25 27 28 29 30 31 31 32 33 33 33 33 35 35 35 35 35
3 2 3 4 4 6 6 4 5 4 6 6 7 7 7 7 7 8 10 11 13 15 17 20 22 23 24 25 27 28 29 30 31 32 33 33 33 34 35 36 37 37 38
7 4 5 5 5 6 4 5 5 5 6 6 6 6 6 7 9 8 8 9 10 10 12 14 17 21 23 24 26 27 28 28 28 29 31 33 34 35 37 38 38 39 40
12 7 6 6 7 5 6 6 6 5 7 7 7 7 7 8 9 9 9 8 8 9 9 12 16 18 20 23 26 26 27 27 27 28 29 30 32 34 36 38 39 40 41
14 9 5 7 7 6 6 7 7 7 6 7 9 9 8 10 8 7 8 9 9 11 12 13 13 15 18 21 24 25 26 27 27 28 29 30 31 32 33 35 37 39 41
12 9 7 7 7 6 7 8 6 8 6 7 6 7 7 8 5 9 12 11 11 10 11 12 11 12 13 20 22 26 28 29 29 29 29 29 30 31 32 32 33 35 38
11 9 8 7 7 6 8 7 6 5 5 7 5 6 5 6 5 12 10 8 10 9 10 11 11 12 13 12 16 23 26 29 29 30 29 29 29 29 30 31 31 32 33
11 9 7 6 7 6 6 6 7 7 6 6 6 4 4 5 9 6 7 10 9 9 10 10 12 10 13 11 13 17 22 27 30 30 29 29 29 29 29 30 31 32 32
9 9 7 6 6 6 6 6 7 6 6 6 5 4 5 7 6 7 6 6 11 12 11 13 11 10 12 12 15 21 24 25 29 29 29 29 29 30 31 31 31 32 32
7 8 7 5 6 5 6 6 6 6 5 5 5 6 7 7 7 10 13 9 8 8 9 10 10 10 10 12 11 17 25 29 31 32 32 32 32 32 33 33 33 33 34
5 6 6 5 5 4 5 5 5 7 6 6 6 6 7 6 8 9 15 16 13 8 9 8 9 10 10 9 16 25 30 32 33 34 35 35 34 34 34 34 35 36 37
4 6 6 5 5 5 5 5 5 7 7 8 7 6 6 7 8 9 13 16 17 12 9 8 8 8 12 8 12 25 28 32 34 35 36 36 36 36 36 36 37 38 38
3 5 6 6 6 5 7 6 6 7 8 8 9 9 7 7 8 8 10 14 18 17 11 10 6 8 8 6 14 25 18 31 33 35 36 37 37 37 37 37 37 37 37
4 6 6 6 7 7 7 7 6 8 8 8 8 9 8 8 8 8 8 8 12 21 20 13 8 9 7 7 16 13 11 27 34 35 36 36 36 36 36 36 36 36 36
5 6 6 7 7 7 7 7 7 8 9 9 8 10 10 9 8 7 8 8 8 13 21 17 12 10 12 17 22 13 13 32 33 33 34 35 35 36 36 37 37 37 37
6 6 6 7 8 8 8 8 8 10 10 10 10 12 13 12 10 8 8 7 8 9 16 18 15 14 14 14 16 11 12 13 15 29 34 36 36 36 36 36 37 37 37
6 6 7 7 8 9 9 9 10 11 9 11 13 14 15 14 13 10 9 9 8 9 13 20 18 15 16 15 16 15 17 17 12 27 33 35 35 36 36 36 36 36 36
6 7 7 7 8 9 9 9 10 8 9 12 14 15 16 15 15 11 10 9 9 13 12 16 19 16 15 15 17 18 16 12 16 21 28 31 33 35 36 37 36 36 35
7 7 7 8 9 9 10 10 8 9 10 11 12 15 16 16 15 13 13 11 12 13 14 16 17 16 16 14 15 16 15 9 12 17 22 26 30 34 35 35 35 35 34
8 8 8 8 9 9 10 12 11 12 10 11 13 15 16 21 24 20 18 14 14 14 15 16 17 18 17 16 16 14 17 15 12 12 15 17 16 16 18 26 31 33 33
8 8 8 9 10 11 20 24 19 10 9 12 15 15 16 17 21 27 30 29 26 20 18 18 18 20 21 19 16 17 17 20 20 8 11 17 14 17 16 14 26 32 32
7 8 9 9 9 13 23 24 24 15 10 11 14 15 17 18 23 15 23 28 24 27 28 20 20 20 21 20 20 21 20 21 21 15 15 20 14 16 14 18 29 31 32
7 8 9 10 10 15 23 24 25 13 9 10 12 14 16 15 18 22 20 18 17 17 22 19 15 18 19 18 20 21 22 21 17 13 14 18 15 15 17 14 26 31 32
8 8 9 10 11 13 21 24 24 10 9 11 13 15 17 17 27 31 23 21 21 17 23 28 30 29 33 33 27 18 17 18 19 14 9 15 17 16 15 15 20 28 28
8 9 10 10 10 11 20 24 24 9 11 12 13 14 21 25 30 33 23 21 20 17 17 19 19 22 19 21 27 18 16 17 19 17 10 11 16 15 13 9 9 9 14
Wind_Direction
88 29 348 295 277 288 287 275 281 291 300 302 297 301 306 297 289 283 278 275 268 262 270 274 274 274 274 272 267 263 260 258 258 257 256 255 252 248 245 243 242 241 240
42 22 344 341 335 328 317 314 313 315 310 308 311 307 297 292 289 292 292 291 286 273 270 277 279 279 278 278 278 274 267 261 258 256 256 255 254 253 250 247 244 242 241
58 34 4 3 354 356 357 355 347 339 328 326 316 312 313 313 306 298 293 288 283 279 274 277 282 283 283 282 282 282 280 275 269 263 258 255 253 252 253 252 249 245 243
54 52 39 21 7 15 12 3 355 349 338 328 317 308 305 299 291 288 292 290 287 284 283 281 281 284 285 285 285 283 282 281 279 275 271 265 260 255 252 252 251 250 247
46 53 46 27 12 20 15 4 1 353 337 328 321 318 317 306 296 299 300 303 311 317 322 320 313 302 292 292 293 290 288 285 283 282 280 276 272 267 262 257 253 251 249
45 40 42 30 15 18 12 10 1 353 341 339 331 322 307 298 299 318 336 344 339 338 339 335 331 324 319 314 311 308 303 299 295 290 287 284 281 278 273 269 264 259 254
49 44 32 29 21 14 19 12 2 348 343 338 329 318 294 299 331 360 344 334 329 334 340 337 331 327 321 319 317 313 310 305 302 299 296 293 289 287 284 281 277 272 266
47 46 36 28 20 15 20 7 6 354 341 346 338 329 328 319 358 339 308 317 322 323 327 324 318 313 309 307 306 310 310 306 302 299 298 298 297 296 294 292 289 286 281
48 42 39 29 19 22 17 3 12 0 339 335 352 343 333 309 316 277 332 313 308 325 318 310 302 302 307 311 309 308 304 303 301 297 296 296 297 298 299 298 297 296 294
58 36 38 31 24 27 20 360 4 347 345 333 332 337 306 300 304 303 299 302 315 309 306 308 309 309 310 308 304 303 301 303 301 297 296 295 296 297 297 299 299 301 303
66 35 30 26 29 28 9 352 351 344 339 330 323 314 309 304 292 302 302 296 293 291 299 305 309 309 306 303 302 305 313 312 307 302 299 297 296 297 297 299 301 303 303
58 32 21 16 22 16 351 338 346 334 317 306 301 298 295 295 302 300 300 303 301 294 296 298 301 301 303 307 314 319 317 313 309 305 301 298 297 296 297 298 299 300 299
36 17 13 4 3 354 341 340 339 317 304 298 292 288 286 286 290 293 296 301 301 299 293 285 286 298 308 311 314 312 311 310 307 304 301 299 298 298 297 296 295 295 294
27 6 2 357 354 347 340 335 322 308 306 300 302 299 295 290 287 289 294 302 304 303 297 289 287 296 297 296 304 308 307 307 305 303 301 299 298 297 295 293 291 291 290
15 4 356 353 344 336 332 328 316 309 306 301 298 294 292 286 283 283 287 293 299 303 302 302 298 294 295 297 300 303 302 304 302 299 298 298 297 296 295 294 292 291 290
7 354 351 344 335 329 327 323 315 309 307 304 301 297 295 293 288 284 282 282 282 291 297 300 302 302 304 303 301 300 299 299 298 298 298 297 296 295 293 292 291 289 288
357 348 341 334 328 323 324 320 315 311 306 308 309 307 302 300 296 291 287 285 283 286 293 299 301 302 300 299 298 288 288 286 291 297 298 297 295 293 291 291 290 289 288
343 335 332 328 323 321 317 312 310 308 310 318 314 308 306 306 301 297 292 288 290 292 293 297 298 300 298 297 295 291 296 294 294 297 298 297 296 296 295 294 293 291 290
328 325 325 320 314 310 306 302 300 306 321 314 309 307 307 305 301 297 294 295 295 297 292 293 295 297 296 296 296 294 289 287 293 298 300 298 297 296 294 293 292 292 292
319 316 312 306 303 301 300 298 304 315 307 304 306 304 303 300 299 300 300 291 294 295 294 293 295 297 297 296 295 297 297 288 292 298 295 292 292 294 293 293 293 293 293
312 304 302 301 298 302 304 312 315 310 307 307 304 301 299 301 304 305 303 304 304 301 300 300 300 301 301 303 302 302 301 301 291 289 290 288 289 287 288 289 289 287 286
299 302 302 300 303 312 314 314 314 308 304 306 306 304 302 301 304 309 309 306 304 305 306 304 303 302 302 303 303 302 301 301 299 286 280 290 289 287 285 283 285 287 288
307 308 305 306 306 309 313 314 315 316 305 303 303 306 308 310 312 304 302 306 307 305 304 301 300 300 301 302 301 298 296 294 294 298 297 293 288 287 288 289 293 294 295
309 306 304 304 302 305 313 316 316 314 297 296 300 304 304 305 306 306 306 310 306 301 298 300 295 296 298 299 296 298 299 298 293 288 286 289 293 292 293 290 293 292 291
306 301 299 300 298 304 314 317 316 304 301 300 303 306 307 305 305 311 314 310 307 304 306 305 304 304 304 305 305 304 301 300 298 295 282 287 293 294 291 288 285 285 287
299 301 301 299 301 305 315 320 321 310 311 311 309 308 309 310 311 314 314 311 312 309 308 310 308 305 301 299 301 299 298 298 298 298 288 286 292 296 295 273 264 276 287
Height
1497 1497 1497 1497 1496 1495 1494 1493 1491 1490 1489 1487 1486 1484 1482 1480 1479 1477 1475 1473 1471 1469 1468 1466 1464 1462 1460 1459 1457 1456 1455 1454 1454 1453 1454 1454 1455 1456 1456 1456 1457 1458 1459
1495 1495 1495 1495 1494 1493 1492 1490 1489 1487 1486 1484 1482 1480 1478 1476 1474 1472 1470 1468 1466 1464 1463 1461 1459 1457 1455 1453 1451 1450 1448 1447 1446 1445 1445 1445 1445 1446 1447 1448 1449 1449 1450
1493 1493 1493 1492 1491 1490 1489 1488 1486 1484 1482 1480 1479 1477 1474 1472 1470 1468 1465 1463 1461 1459 1458 1456 1454 1452 1450 1447 1445 1443 1441 1440 1439 1437 1436 1436 1436 1436 1437 1438 1439 1440 1441
1491 1490 1490 1490 1489 1488 1486 1485 1483 1481 1479 1477 1474 1472 1470 1467 1465 1462 1460 1458 1456 1455 1453 1451 1449 1446 1444 1442 1439 1437 1434 1432 1430 1429 1428 1427 1426 1426 1426 1426 1427 1428 1430
1489 1488 1488 1488 1487 1486 1484 1483 1480 1478 1475 1472 1469 1467 1464 1462 1459 1457 1455 1453 1452 1449 1447 1445 1442 1440 1438 1436 1433 1431 1428 1425 1423 1420 1419 1417 1416 1415 1415 1415 1415 1415 1416
1488 1487 1487 1486 1485 1484 1482 1479 1477 1475 1472 1468 1464 1461 1459 1456 1454 1453 1450 1448 1446 1444 1441 1439 1436 1434 1431 1429 1426 1423 1421 1418 1415 1413 1410 1408 1406 1405 1403 1403 1403 1403 1403
1487 1487 1486 1485 1483 1481 1479 1476 1473 1470 1468 1464 1459 1454 1452 1451 1450 1447 1446 1443 1441 1438 1435 1433 1431 1428 1425 1422 1419 1416 1413 1410 1408 1405 1402 1400 1397 1395 1393 1391 1390 1390 1390
1486 1485 1484 1483 1480 1478 1476 1473 1470 1467 1464 1462 1458 1452 1448 1445 1444 1443 1440 1438 1435 1433 1430 1427 1424 1421 1417 1414 1411 1408 1405 1402 1399 1396 1393 1390 1388 1385 1383 1381 1379 1378 1377
1485 1484 1482 1480 1477 1475 1472 1470 1467 1465 1462 1460 1458 1456 1451 1444 1438 1435 1435 1432 1429 1426 1423 1420 1417 1414 1410 1406 1403 1400 1397 1393 1390 1387 1384 1381 1379 1376 1373 1371 1369 1367 1365
1483 1481 1479 1477 1475 1472 1470 1468 1466 1463 1461 1458 1456 1455 1453 1447 1440 1429 1426 1425 1423 1419 1415 1412 1409 1406 1402 1399 1395 1392 1389 1385 1381 1378 1375 1372 1369 1367 1364 1361 1359 1356 1353
1481 1479 1477 1474 1472 1469 1467 1465 1463 1461 1458 1456 1453 1450 1446 1443 1438 1431 1419 1414 1413 1411 1409 1406 1402 1398 1395 1391 1387 1384 1380 1375 1372 1369 1366 1363 1360 1357 1354 1351 1348 1345 1342
1479 1477 1474 1471 1469 1467 1464 1462 1460 1458 1455 1452 1449 1446 1442 1438 1434 1428 1418 1408 1404 1401 1400 1397 1394 1391 1387 1383 1379 1375 1370 1366 1362 1359 1356 1353 1350 1347 1344 1341 1338 1335 1332
1477 1474 1471 1469 1466 1464 1462 1459 1457 1454 1451 1448 1444 1441 1437 1434 1430 1425 1417 1406 1398 1392 1390 1388 1386 1383 1379 1375 1371 1367 1362 1358 1354 1350 1346 1343 1339 1336 1333 1330 1327 1324 1322
1474 1472 1469 1466 1464 1462 1459 1456 1453 1450 1447 1443 1439 1436 1432 1428 1424 1420 1414 1406 1393 1383 1380 1377 1376 1374 1371 1367 1363 1359 1354 1350 1345 1341 1337 1333 1329 1325 1322 1319 1316 1313 1310
1472 1469 1466 1464 1461 1459 1456 1452 1449 1445 1441 1438 1433 1429 1425 1421 1417 1413 1409 1404 1397 1382 1370 1368 1366 1364 1362 1358 1354 1350 1345 1341 1336 1331 1327 1323 1319 1314 1310 1307 1304 1301 1298
1469 1466 1463 1461 1458 1455 1452 1448 1444 1440 1436 1432 1428 1423 1419 1414 1410 1406 1402 1397 1392 1384 1369 1361 1357 1355 1351 1348 1345 1342 1336 1332 1326 1322 1317 1313 1309 1304 1300 1296 1292 1289 1286
1466 1463 1461 1458 1455 1451 1448 1443 1439 1434 1430 1425 1421 1417 1411 1407 1402 1398 1394 1389 1384 1379 1368 1356 1352 1347 1342 1338 1333 1330 1326 1321 1316 1312 1308 1303 1298 1293 1289 1284 1280 1277 1274
1463 1460 1458 1455 1451 1447 1443 1438 1433 1429 1424 1419 1414 1409 1404 1400 1395 1391 1386 1381 1376 1371 1365 1353 1344 1339 1334 1329 1324 1318 1315 1311 1307 1302 1297 1292 1287 1282 1277 1273 1269 1265 1261
1460 1457 1454 1451 1447 1442 1437 1433 1428 1424 1419 1414 1408 1403 1398 1393 1387 1383 1379 1373 1368 1363 1357 1349 1339 1333 1326 1321 1315 1308 1304 1299 1295 1291 1286 1281 1275 1270 1266 1261 1257 1253 1249
1457 1454 1450 1446 1442 1437 1432 1428 1423 1418 1412 1407 1401 1396 1391 1387 1382 1377 1371 1366 1361 1355 1349 1342 1333 1325 1319 1313 1307 1299 1291 1287 1283 1280 1274 1269 1264 1259 1254 1249 1245 1241 1238
1453 1449 1445 1441 1437 1432 1428 1423 1418 1412 1406 1399 1394 1389 1385 1381 1377 1372 1366 1360 1354 1348 1341 1334 1326 1318 1311 1304 1298 1291 1283 1276 1270 1269 1262 1255 1252 1246 1240 1236 1233 1228 1225
1448 1445 1440 1436 1432 1427 1423 1418 1413 1406 1400 1394 1388 1382 1378 1374 1370 1365 1360 1354 1349 1342 1335 1328 1319 1312 1304 1298 1291 1284 1276 1268 1256 1257 1252 1243 1241 1234 1229 1225 1221 1218 1215
1444 1440 1436 1431 1426 1421 1416 1412 1407 1401 1394 1389 1383 1377 1372 1368 1363 1356 1350 1345 1340 1335 1331 1323 1313 1305 1297 1290 1283 1274 1267 1260 1251 1246 1243 1231 1228 1223 1219 1215 1211 1207 1204
1439 1435 1430 1425 1420 1415 1411 1406 1401 1395 1389 1383 1378 1373 1367 1360 1355 1350 1342 1336 1330 1325 1320 1313 1306 1297 1290 1282 1276 1268 1259 1250 1242 1239 1236 1225 1217 1213 1208 1204 1200 1196 1193
1435 1430 1425 1420 1415 1410 1406 1401 1396 1390 1383 1377 1372 1367 1362 1355 1349 1343 1336 1328 1320 1314 1309 1303 1296 1289 1282 1275 1268 1260 1251 1243 1233 1228 1227 1220 1209 1203 1196 1191 1188 1185 1182
1430 1425 1420 1415 1410 1405 1401 1396 1392 1385 1378 1371 1365 1360 1355 1349 1343 1336 1329 1320 1312 1305 1298 1291 1284 1278 1271 1265 1259 1254 1246 1237 1227 1219 1215 1211 1202 1195 1184 1180 1177 1175 1171